Soldotna, AK

1:34 AM AKDT on May 28, 2017 (GMT -0800)
Soldotna

Weather History for PASX - April, 2014

Change the Weather History Date:

Wednesday, April 16, 2014

  Actual Average Record
Temperature  
Mean Temperature 40 °F -  
Max Temperature 48 °F 41 °F 60 °F (1965)
Min Temperature 33 °F 28 °F 9 °F (1963)
Degree Days  
Heating Degree Days 24    
Moisture  
Dew Point 33 °F    
Average Humidity 75    
Maximum Humidity 93    
Minimum Humidity 50    
Precipitation  
Precipitation 0.00 in - - ()
Sea Level Pressure  
Sea Level Pressure 29.69 in    
Wind  
Wind Speed 2 mph (NNE)    
Max Wind Speed 15 mph    
Max Gust Speed 20 mph    
Visibility 10 miles    
Events      
Averages and records for this station are not official NWS values.
T = Trace of Precipitation, MM = Missing Value Source: NWS Daily Summary

Daily Weather History Graph

Daily Weather History Graph

Search for Another Location

Airport or City:

Trip Planner

Search our weather history database for the weather conditions in past years. The results will help you decide how hot, cold, wet, or windy it might be!

Date:

Astronomy

Apr. 16, 2014 Rise Set
Actual Time 6:42 AM AKDT 9:27 PM AKDT
Civil Twilight 5:54 AM AKDT 10:14 PM AKDT
Nautical Twilight 4:50 AM AKDT 11:20 PM AKDT
Astronomical Twilight 3:13 AM AKDT 1:03 AM AKDT
Moon 11:49 PM AKDT (4/16) 7:18 AM AKDT (4/16)
Length of Visible Light 16h 20m
Length of Day
14h 44m
Full, 97% of the Moon is Illuminated
Apr 16
Full
Apr 21
Last Quarter
Apr 28
New
May 6
First Quarter
May 14
Full

Hourly Weather History & Observations

Time (AKDT) Temp. Windchill Dew Point Humidity Pressure Visibility Wind Dir Wind Speed Gust Speed Precip Events Conditions
12:16 AM 37.4 °F - 33.8 °F 87% 29.80 in 10.0 mi Calm Calm - N/A   Overcast
12:36 AM 35.6 °F - 33.8 °F 93% 29.80 in 10.0 mi Calm Calm - N/A   Overcast
12:56 AM 35.6 °F - 33.8 °F 93% 29.79 in 10.0 mi Calm Calm - N/A   Overcast
1:16 AM 35.6 °F - 33.8 °F 93% 29.79 in 10.0 mi Calm Calm - N/A   Overcast
1:36 AM 35.6 °F - 33.8 °F 93% 29.79 in 10.0 mi Calm Calm - N/A   Overcast
1:56 AM 35.6 °F - 32.0 °F 87% 29.79 in 10.0 mi Calm Calm - N/A   Overcast
2:16 AM 35.6 °F - 33.8 °F 93% 29.79 in 10.0 mi Calm Calm - N/A   Overcast
2:36 AM 35.6 °F - 33.8 °F 93% 29.79 in 10.0 mi Calm Calm - N/A   Overcast
2:56 AM 35.6 °F - 32.0 °F 87% 29.79 in 10.0 mi Calm Calm - N/A   Overcast
3:16 AM 35.6 °F 32.8 °F 33.8 °F 93% 29.78 in 10.0 mi NE 3.5 mph - N/A   Overcast
3:36 AM 35.6 °F - 32.0 °F 87% 29.78 in 10.0 mi Calm Calm - N/A   Overcast
3:56 AM 35.6 °F - 32.0 °F 87% 29.78 in 10.0 mi Calm Calm - N/A   Overcast
4:16 AM 35.6 °F - 32.0 °F 87% 29.77 in 10.0 mi Calm Calm - N/A   Overcast
4:36 AM 35.6 °F - 32.0 °F 87% 29.77 in 10.0 mi Calm Calm - N/A   Overcast
4:56 AM 35.6 °F - 32.0 °F 87% 29.77 in 10.0 mi Calm Calm - N/A   Overcast
5:16 AM 35.6 °F - 32.0 °F 87% 29.77 in 10.0 mi Calm Calm - N/A   Overcast
5:36 AM 33.8 °F - 32.0 °F 93% 29.77 in 10.0 mi Calm Calm - N/A   Overcast
5:56 AM 33.8 °F - 30.2 °F 87% 29.76 in 10.0 mi Calm Calm - N/A   Overcast
6:16 AM 33.8 °F - 30.2 °F 87% 29.76 in 10.0 mi Calm Calm - N/A   Overcast
6:36 AM 33.8 °F - 30.2 °F 87% 29.76 in 10.0 mi Calm Calm - N/A   Overcast
6:56 AM 33.8 °F - 30.2 °F 87% 29.76 in 10.0 mi Calm Calm - N/A   Overcast
7:16 AM 33.8 °F - 30.2 °F 87% 29.75 in 10.0 mi Calm Calm - N/A   Overcast
7:36 AM 33.8 °F - 30.2 °F 87% 29.75 in 10.0 mi Calm Calm - N/A   Overcast
7:56 AM 33.8 °F - 30.2 °F 87% 29.74 in 10.0 mi Calm Calm - N/A   Overcast
8:16 AM 33.8 °F - 30.2 °F 87% 29.74 in 10.0 mi Calm Calm - N/A   Mostly Cloudy
8:36 AM 33.8 °F - 30.2 °F 87% 29.74 in 10.0 mi Calm Calm - N/A   Mostly Cloudy
8:56 AM 33.8 °F - 30.2 °F 87% 29.74 in 10.0 mi Calm Calm - N/A   Mostly Cloudy
9:16 AM 35.6 °F - 32.0 °F 87% 29.74 in 10.0 mi Calm Calm - N/A   Overcast
9:36 AM 35.6 °F - 33.8 °F 93% 29.73 in 10.0 mi Calm Calm - N/A   Overcast
9:56 AM 37.4 °F 33.8 °F 33.8 °F 87% 29.73 in 10.0 mi NNE 4.6 mph - N/A   Overcast
10:16 AM 37.4 °F 32.8 °F 33.8 °F 87% 29.72 in 10.0 mi NNE 5.8 mph - N/A   Overcast
10:36 AM 39.2 °F 35.0 °F 33.8 °F 81% 29.72 in 10.0 mi NE 5.8 mph - N/A   Overcast
10:56 AM 39.2 °F 37.0 °F 35.6 °F 87% 29.71 in 10.0 mi NNE 3.5 mph - N/A   Overcast
11:16 AM 42.8 °F 38.0 °F 35.6 °F 76% 29.71 in 10.0 mi NNE 8.1 mph - N/A   Overcast
11:36 AM 42.8 °F 38.6 °F 33.8 °F 70% 29.71 in 10.0 mi NNE 6.9 mph - N/A   Overcast
11:56 AM 42.8 °F 40.1 °F 35.6 °F 76% 29.70 in 10.0 mi NE 4.6 mph - N/A   Overcast
12:16 PM 44.6 °F 40.2 °F 35.6 °F 71% 29.70 in 10.0 mi NE 8.1 mph - N/A   Overcast
12:36 PM 44.6 °F 40.2 °F 35.6 °F 71% 29.70 in 10.0 mi NE 8.1 mph - N/A   Overcast
12:56 PM 46.4 °F 42.4 °F 35.6 °F 66% 29.69 in 10.0 mi NNE 8.1 mph - N/A   Overcast
1:16 PM 46.4 °F 41.9 °F 35.6 °F 66% 29.68 in 10.0 mi North 9.2 mph - N/A   Overcast
1:36 PM 48.2 °F - 35.6 °F 62% 29.68 in 10.0 mi NNE 6.9 mph - N/A   Overcast
1:56 PM 48.2 °F - 35.6 °F 62% 29.67 in 10.0 mi NNW 9.2 mph - N/A   Mostly Cloudy
2:16 PM 48.2 °F - 33.8 °F 58% 29.66 in 10.0 mi NE 6.9 mph - N/A   Mostly Cloudy
2:36 PM 48.2 °F - 33.8 °F 58% 29.65 in 10.0 mi NNE 8.1 mph - N/A   Mostly Cloudy
2:56 PM 48.2 °F - 33.8 °F 58% 29.65 in 10.0 mi NNE 10.4 mph 16.1 mph N/A   Mostly Cloudy
3:16 PM 48.2 °F - 33.8 °F 58% 29.65 in 10.0 mi NE 12.7 mph 16.1 mph N/A   Overcast
3:36 PM 48.2 °F - 33.8 °F 58% 29.64 in 10.0 mi North 9.2 mph - N/A   Overcast
3:56 PM 48.2 °F - 33.8 °F 58% 29.64 in 10.0 mi NE 9.2 mph - N/A   Overcast
4:16 PM 48.2 °F - 33.8 °F 58% 29.64 in 10.0 mi North 6.9 mph - N/A   Mostly Cloudy
4:36 PM 48.2 °F - 32.0 °F 54% 29.63 in 10.0 mi North 5.8 mph - N/A   Overcast
4:56 PM 48.2 °F - 32.0 °F 54% 29.62 in 10.0 mi NNE 6.9 mph 16.1 mph N/A   Overcast
5:16 PM 48.2 °F - 32.0 °F 54% 29.62 in 10.0 mi NNE 10.4 mph - N/A   Overcast
5:36 PM 48.2 °F - 32.0 °F 54% 29.61 in 10.0 mi NE 8.1 mph - N/A   Overcast
5:56 PM 48.2 °F - 30.2 °F 50% 29.60 in 10.0 mi NNE 8.1 mph - N/A   Mostly Cloudy
6:16 PM 48.2 °F - 30.2 °F 50% 29.60 in 10.0 mi NNE 9.2 mph - N/A   Overcast
6:36 PM 48.2 °F - 33.8 °F 58% 29.60 in 10.0 mi NE 9.2 mph - N/A   Overcast
6:56 PM 46.4 °F 40.1 °F 33.8 °F 62% 29.60 in 10.0 mi ENE 15.0 mph 19.6 mph N/A   Overcast
7:16 PM 44.6 °F 40.7 °F 35.6 °F 71% 29.60 in 10.0 mi NNE 6.9 mph - N/A   Overcast
7:36 PM 44.6 °F - 33.8 °F 66% 29.59 in 10.0 mi Calm Calm - N/A   Mostly Cloudy
7:56 PM 44.6 °F - 35.6 °F 71% 29.59 in 10.0 mi Calm Calm - N/A   Overcast
8:16 PM 44.6 °F - 35.6 °F 71% 29.58 in 10.0 mi Calm Calm - N/A   Overcast
8:36 PM 44.6 °F 42.2 °F 33.8 °F 66% 29.57 in 10.0 mi NNE 4.6 mph - N/A   Mostly Cloudy
8:56 PM 44.6 °F 42.2 °F 33.8 °F 66% 29.57 in 10.0 mi NNE 4.6 mph - N/A   Scattered Clouds
9:16 PM 44.6 °F 41.4 °F 32.0 °F 61% 29.57 in 10.0 mi NE 5.8 mph - N/A   Mostly Cloudy
9:36 PM 44.6 °F 41.4 °F 32.0 °F 61% 29.57 in 10.0 mi NE 5.8 mph - N/A   Overcast
9:56 PM 42.8 °F 39.3 °F 32.0 °F 66% 29.56 in 10.0 mi NNE 5.8 mph - N/A   Overcast
10:16 PM 42.8 °F 38.6 °F 32.0 °F 66% 29.56 in 10.0 mi NE 6.9 mph - N/A   Scattered Clouds
10:36 PM 42.8 °F 41.1 °F 30.2 °F 61% 29.56 in 10.0 mi NE 3.5 mph - N/A   Partly Cloudy
10:56 PM 39.2 °F - 28.4 °F 65% 29.56 in 10.0 mi Calm Calm - N/A   Scattered Clouds
11:16 PM 39.2 °F - 30.2 °F 70% 29.55 in 10.0 mi Calm Calm - N/A   Partly Cloudy
11:36 PM 37.4 °F - 28.4 °F 70% 29.55 in 10.0 mi Calm Calm - N/A   Mostly Cloudy
11:56 PM 37.4 °F - 28.4 °F 70% 29.54 in 10.0 mi Calm Calm - N/A   Overcast